Weather History for Pisco, Peru

Change the Weather History Date:

Thursday, November 14, 2013

  Actual Average Record
Temperature  
Mean Temperature 64 °F -  
Max Temperature 74 °F 75 °F - ()
Min Temperature 55 °F 61 °F - ()
Growing Degree Days 14 (Base 50)    
Moisture  
Dew Point 58 °F    
Average Humidity 81    
Maximum Humidity 94    
Minimum Humidity 61    
Precipitation  
Precipitation 0.00 in 0.00 in - ()
Sea Level Pressure  
Sea Level Pressure 29.91 in    
Wind  
Wind Speed 5 mph ()    
Max Wind Speed 18 mph    
Max Gust Speed -    
Visibility 4.5 miles    
Events      
T = Trace of Precipitation, MM = Missing Value Source: Averaged Metar Reports

Daily Weather History Graph

Daily Weather History Graph

Search for Another Location

Airport:

Trip Planner

Search our weather history database for the weather conditions in past years. The results will help you decide how hot, cold, wet, or windy it might be!

Date:

Astronomy

Nov. 14, 2013 Rise Set
Actual Time 5:27 AM PET 6:11 PM PET
Civil Twilight 5:04 AM PET 6:34 PM PET
Nautical Twilight 4:37 AM PET 7:00 PM PET
Astronomical Twilight 4:10 AM PET 7:28 PM PET
Moon 3:51 PM PET (11/14) 3:09 AM PET (11/14)
Length of Visible Light 13h 29m
Length of Day
12h 44m
Waxing Gibbous, 91% of the Moon is Illuminated
Nov 14
Waxing Gibbous
Nov 17
Full
Nov 25
Last Quarter
Dec 2
New
Dec 9
First Quarter

Hourly Weather History & Observations

Time (PET) Temp. Dew Point Humidity Pressure Visibility Wind Dir Wind Speed Gust Speed Precip Events Conditions
12:00 AM 60.8 °F 57.2 °F 88% 29.95 in 5.0 mi Calm Calm - N/A   Unknown
1:00 AM 59 °F 55 °F 84% 29.91 in 4 mi Calm Calm - -   Mist
1:00 AM 59.0 °F 55.4 °F 88% 29.92 in 4.3 mi Calm Calm - N/A   Unknown
2:00 AM 57.2 °F 53.6 °F 88% 29.89 in 4.3 mi ENE 3.5 mph - N/A   Unknown
3:00 AM 55.4 °F 51.8 °F 88% 29.89 in 3.7 mi Calm Calm - N/A   Unknown
4:00 AM 55 °F 52 °F 88% 29.86 in 4 mi Calm Calm - -   Mist
4:00 AM 55.4 °F 51.8 °F 88% 29.86 in 3.7 mi Calm Calm - N/A   Unknown
5:00 AM 55.4 °F 51.8 °F 88% 29.89 in 3.1 mi Calm Calm - N/A   Mist
5:30 AM 55.4 °F 53.6 °F 94% 29.89 in 3.7 mi Calm Calm - N/A   Mostly Cloudy
6:00 AM 57.2 °F 55.4 °F 94% 29.89 in 3.7 mi Calm Calm - N/A   Mostly Cloudy
7:00 AM 60.8 °F 55.4 °F 82% 29.92 in 4.3 mi Variable 2.3 mph - N/A   Mostly Cloudy
8:00 AM 64.4 °F 59.0 °F 83% 29.95 in 4.3 mi Calm Calm - N/A   Mostly Cloudy
9:00 AM 66.2 °F 60.8 °F 83% 29.95 in 4.3 mi WNW 6.9 mph - N/A   Mostly Cloudy
10:00 AM 68.0 °F 60.8 °F 78% 29.92 in 4.3 mi WNW 11.5 mph - N/A   Partly Cloudy
11:00 AM 68.0 °F 59.0 °F 73% 29.92 in 4.3 mi West 11.5 mph - N/A   Partly Cloudy
12:00 PM 68.0 °F 59.0 °F 73% 29.92 in 4.3 mi West 12.7 mph - N/A   Smoke
12:27 PM 68.0 °F 59.0 °F 73% 29.92 in 4.3 mi WNW 11.5 mph - N/A   Partly Cloudy
1:00 PM 70 °F 62 °F 67% 29.89 in 5 mi WNW 10.4 mph - -   Haze
1:00 PM 69.8 °F 57.2 °F 64% 29.89 in 4.3 mi WNW 11.5 mph - N/A   Partly Cloudy
2:00 PM 73.4 °F 64.4 °F 73% 29.89 in - NNW 9.2 mph - N/A   Clear
3:00 PM 75.2 °F 62.6 °F 65% 29.89 in - SW 13.8 mph - N/A   Clear
4:00 PM 72 °F 61 °F 61% 29.87 in 6 mi SW 18.4 mph - -   Partly Cloudy
4:00 PM 71.6 °F 60.8 °F 69% 29.89 in - SW 18.4 mph - N/A   Clear
5:00 PM 69.8 °F 62.6 °F 78% 29.89 in - SSW 18.4 mph - N/A   Clear
6:00 PM 68.0 °F 60.8 °F 78% 29.89 in - SSW 17.3 mph - N/A   Clear
7:00 PM 66 °F 60 °F 76% 29.90 in 6 mi SSW 15.0 mph - -   Partly Cloudy
7:00 PM 66.2 °F 60.8 °F 83% 29.92 in 6.2 mi SSW 15.0 mph - N/A   Partly Cloudy
8:00 PM 64.4 °F 60.8 °F 88% 29.92 in 5.0 mi SSW 13.8 mph - N/A   Unknown
9:00 PM 62.6 °F 59.0 °F 88% 29.95 in 5.0 mi SSW 11.5 mph - N/A   Unknown
10:00 PM 63 °F 60 °F 88% 29.95 in 5 mi SSW 10.4 mph - -   Mist
10:00 PM 62.6 °F 60.8 °F 94% 29.95 in 5.0 mi SSW 10.4 mph - N/A   Unknown
11:00 PM 62.6 °F 60.8 °F 94% 29.95 in 5.0 mi SW 9.2 mph - N/A   Unknown